Tracking 28790 objects as of 19-Apr-2024
HD Live streaming from Space Station
objects crossing your sky now

FENGYUN 1C DEB

Track FENGYUN 1C DEB now!
10-day predictions


NORAD ID: 31159
Int'l Code: 1999-025BHM
Perigee: 440.8 km
Apogee: 780.6 km
Inclination: 97.8 °
Period: 96.8 minutes
Semi major axis: 6981 km
RCS: 0.0102 m2 (small)
Launch date: May 10, 1999
Source: People's Republic of China (PRC)
Launch site: Taiyaun Space Center, China (TSC)

Note: This is SATELLITE DEBRIS
Your satellite tracking list
Your tracking list is empty




NASA's NSSDC Master Catalog

Two Line Element Set (TLE):
1 31159U 99025BHM 24109.29125686  .00024713  00000-0  15375-2 0  9999
2 31159  97.7534  53.4045 0243394 273.8410  83.5013 14.88202611904452
Source of the keplerian elements: AFSPC